Retour au catalogue

STARLINK-37380

ActifCommunicationsVLEO
NORAD 69182·PAYLOAD·🇺🇸 United States

Lancé May 25, 2026 depuis Cape Canaveral Space Force Station

Loading…

Prochains Passages (prochaines 24 heures)

TLE

FraisSource: CelesTrak SupGP

Époque: Sep 15, 2026, 02:58 UTC

1 69182C 26114A   26258.12409722  .00060482  00000+0  17874-2 0  2586
2 69182  53.1557 139.1992 0001137  88.1765   0.5179 15.34352310    15

Suivez STARLINK-37380 en temps réel avec AllMySat

Download on the App Store